Terminal Aerodrome Forecast
Issued by NWS

Home | Current Version | Previous Version | Text Only | Print | Product List | Glossary On
Versions: 1 2 3 4 5 6 7 8 9 10 11 12 13 14 15 16 17 18 19 20 21 22 23 24 25 26 27
000
FTUS44 KHGX 200858 AAA
TAFIAH
TAF AMD
KIAH 200858Z 2009/2112 00000KT P6SM FEW250
     FM201000 VRB03KT P6SM FEW015
     FM201600 21005KT P6SM FEW025 SCT035
     FM202000 14008KT P6SM VCTS SCT050CB BKN250
      TEMPO 2022/2101 VRB08G25KT TSRA
     FM210300 16005KT P6SM BKN250
     FM211000 15004KT P6SM SCT018 BKN250=

USA.gov is the U.S. government's official web portal to all federal, state and local government web resources and services.